Ostrava, Czech Republic

12:50 AM CEST on August 30, 2016 (GMT +0200)
Mosnov

Weather History for LKMT - November, 2012

Change the Weather History Date:

Thursday, November 1, 2012

  Actual Average (EPKT) Record (EPKT)
Temperature  
Mean Temperature 44 °F -  
Max Temperature 55 °F 44 °F 66 °F (2003)
Min Temperature 32 °F 34 °F 24 °F (2005)
Degree Days  
Heating Degree Days 22    
Moisture  
Dew Point 39 °F    
Average Humidity 80    
Maximum Humidity 100    
Minimum Humidity 58    
Precipitation  
Precipitation 0.02 in 0.06 in - ()
Sea Level Pressure  
Sea Level Pressure 29.49 in    
Wind  
Wind Speed 4 mph ()    
Max Wind Speed 12 mph    
Max Gust Speed -    
Visibility 6.8 miles    
Events Rain    
Averages and records for this station are not official NWS values.
T = Trace of Precipitation, MM = Missing Value Source: Averaged Metar Reports

Daily Weather History Graph

Daily Weather History Graph

Search for Another Location

Airport or City:

Trip Planner

Search our weather history database for the weather conditions in past years. The results will help you decide how hot, cold, wet, or windy it might be!

Date:

Astronomy

Nov. 01, 2012 Rise Set
Actual Time 6:36 AM CET 4:24 PM CET
Civil Twilight 6:03 AM CET 4:58 PM CET
Nautical Twilight 5:25 AM CET 5:36 PM CET
Astronomical Twilight 4:47 AM CET 6:13 PM CET
Moon 5:55 PM CET (11/1) 9:06 AM CET (11/1)
Length of Visible Light 10h 55m
Length of Day
9h 47m
Waning Gibbous, 94% of the Moon is Illuminated
Nov 1
Waning Gibbous
Nov 7
Last Quarter
Nov 13
New
Nov 20
First Quarter
Nov 28
Full

Hourly Weather History & Observations

Time (CET) Temp. Windchill Dew Point Humidity Pressure Visibility Wind Dir Wind Speed Gust Speed Precip Events Conditions
12:00 AM 41.0 °F 36.4 °F 32.0 °F 70% 29.71 in - WSW 6.9 mph - N/A   Clear
12:30 AM 41.0 °F 37.1 °F 33.8 °F 76% 29.71 in - Variable 5.8 mph - N/A   Clear
1:00 AM 41 °F - 33 °F 63% 29.73 in 12 mi 2.2 mph - -   Clear
1:00 AM 41.0 °F - 33.8 °F 76% 29.68 in - Variable 2.3 mph - N/A   Clear
1:30 AM 41.0 °F - 32.0 °F 70% 29.68 in - Variable 1.2 mph - N/A   Clear
2:00 AM 37.4 °F 34.9 °F 33.8 °F 87% 29.68 in - Variable 3.5 mph - N/A   Clear
2:30 AM 37.4 °F - 32.0 °F 81% 29.65 in - Variable 1.2 mph - N/A   Clear
3:00 AM 37.4 °F 34.9 °F 32.0 °F 81% 29.62 in - Variable 3.5 mph - N/A   Clear
3:30 AM 35.6 °F - 32.0 °F 87% 29.62 in - Variable 2.3 mph - N/A   Clear
4:00 AM 35.6 °F - 32.0 °F 87% 29.62 in - Variable 2.3 mph - N/A   Clear
4:30 AM 35.6 °F - 32.0 °F 87% 29.62 in - Variable 1.2 mph - N/A   Clear
5:00 AM 33.8 °F 30.8 °F 32.0 °F 93% 29.59 in - Variable 3.5 mph - N/A   Clear
5:30 AM 35.6 °F - 32.0 °F 87% 29.56 in - Variable 2.3 mph - N/A   Clear
6:00 AM 33.8 °F - 30.2 °F 87% 29.56 in - Variable 2.3 mph - N/A   Clear
6:30 AM 33.8 °F - 30.2 °F 87% 29.53 in - Variable 1.2 mph - N/A   Clear
7:00 AM 35 °F - 32 °F 83% 29.59 in 19 mi 2.2 mph - -   Scattered Clouds
7:00 AM 33.8 °F - 32.0 °F 93% 29.53 in - Variable 1.2 mph - N/A   Clear
7:30 AM 35.6 °F - 32.0 °F 87% 29.53 in - Variable 2.3 mph - N/A   Clear
8:00 AM 39.2 °F 37.0 °F 32.0 °F 75% 29.50 in - Variable 3.5 mph - N/A   Clear
8:30 AM 50.0 °F - 35.6 °F 58% 29.50 in 6.2 mi South 8.1 mph - N/A   Partly Cloudy
9:00 AM 42.8 °F 39.3 °F 33.8 °F 70% 29.50 in 6.2 mi SSE 5.8 mph - N/A   Partly Cloudy
9:30 AM 50.0 °F - 37.4 °F 62% 29.47 in 6.2 mi South 4.6 mph - N/A   Scattered Clouds
10:00 AM 44.6 °F 42.2 °F 37.4 °F 76% 29.47 in 6.2 mi Variable 4.6 mph - N/A   Scattered Clouds
10:30 AM 51.8 °F - 39.2 °F 62% 29.44 in 6.2 mi NNW 5.8 mph - N/A   Scattered Clouds
11:00 AM 51.8 °F - 39.2 °F 62% 29.44 in 6.2 mi Variable 3.5 mph - N/A   Mostly Cloudy
11:30 AM 53.6 °F - 41.0 °F 62% 29.42 in 6.2 mi Variable 4.6 mph - N/A   Scattered Clouds
12:00 PM 55.4 °F - 42.8 °F 63% 29.39 in 6.2 mi Variable 5.8 mph - N/A   Scattered Clouds
12:30 PM 53.6 °F - 42.8 °F 67% 29.39 in 6.2 mi South 9.2 mph - N/A Rain Light Rain
1:00 PM 52 °F - 43 °F 64% 29.40 in 7 mi South 6.7 mph - - Rain Light Rain
1:00 PM 51.8 °F - 42.8 °F 71% 29.39 in 6.2 mi Variable 5.8 mph - N/A Rain Light Rain
1:30 PM 51.8 °F - 44.6 °F 76% 29.39 in 6.2 mi SW 5.8 mph - N/A   Mostly Cloudy
2:00 PM 51.8 °F - 44.6 °F 76% 29.36 in 6.2 mi NW 3.5 mph - N/A   Mostly Cloudy
2:30 PM 50.0 °F - 44.6 °F 82% 29.36 in 6.2 mi West 5.8 mph - N/A   Mostly Cloudy
3:00 PM 50.0 °F - 44.6 °F 82% 29.36 in 6.2 mi SSW 4.6 mph - N/A   Overcast
3:30 PM 51.8 °F - 44.6 °F 76% 29.36 in 6.2 mi SSW 11.5 mph - N/A Rain Light Rain
4:00 PM 51.8 °F - 42.8 °F 71% 29.36 in 6.2 mi South 8.1 mph - N/A   Overcast
4:30 PM 51.8 °F - 44.6 °F 76% 29.36 in 6.2 mi South 9.2 mph - N/A   Overcast
5:00 PM 51.8 °F - 44.6 °F 76% 29.39 in 6.2 mi South 6.9 mph - N/A Rain Light Rain
5:30 PM 50.0 °F - 44.6 °F 82% 29.39 in 6.2 mi SSW 6.9 mph - N/A Rain Light Rain
6:00 PM 48.2 °F - 44.6 °F 87% 29.39 in 6.2 mi WNW 3.5 mph - N/A Rain Light Rain
6:30 PM 48.2 °F - 46.4 °F 93% 29.39 in 6.2 mi Calm Calm - N/A Rain Light Rain
7:00 PM 47 °F - 46 °F 93% 29.42 in 7 mi 2.2 mph - - Rain Light Rain
7:00 PM 46.4 °F - 46.4 °F 100% 29.39 in 6.2 mi Calm Calm - N/A Rain Light Rain
7:30 PM 46.4 °F - 44.6 °F 93% 29.42 in 6.2 mi Variable 2.3 mph - N/A   Overcast
8:00 PM 48.2 °F - 46.4 °F 93% 29.39 in 6.2 mi SSW 3.5 mph - N/A   Overcast
8:30 PM 48.2 °F - 46.4 °F 93% 29.42 in 6.2 mi West 3.5 mph - N/A   Overcast
9:00 PM 48.2 °F - 46.4 °F 93% 29.42 in 6.2 mi SW 5.8 mph - N/A   Overcast
9:30 PM 50.0 °F - 46.4 °F 87% 29.42 in 6.2 mi SW 11.5 mph - N/A   Overcast
10:00 PM 48.2 °F - 46.4 °F 93% 29.44 in 6.2 mi WSW 11.5 mph - N/A   Overcast
10:30 PM 48.2 °F - 46.4 °F 93% 29.44 in 6.2 mi WSW 9.2 mph - N/A   Overcast
11:00 PM 48.2 °F - 46.4 °F 93% 29.44 in 6.2 mi WSW 8.1 mph - N/A   Overcast
11:30 PM 48.2 °F - 46.4 °F 93% 29.44 in 6.2 mi WSW 9.2 mph - N/A   Overcast